Flag for Germany Weather past 2 weeks in Nürburg, Rhineland-Palatinate, Germany

Now
40 °F

Overcast.


Feels Like: 36 °F
Forecast: 31 / 43 °F
Wind: 5 mph from Northeast

Location: Nuerburg-Barweiler

Current Time: Mar 5, 2015 at 4:01:00 PM

Latest Report: Mar 5, 2015 at 3:00 PM


Visibility: 34 mi

Pressure: 30.64 "Hg

Humidity: 65%

Dew point: 29 °F

Location of NürburgLocation

Historic Weather in Nürburg — Graph

°F

Nürburg temperature yesterday

Maximum temperature yesterday: 41 °F (at 4:00 PM)
Minimum temperature yesterday: 31 °F (at 7:00 AM)
Average temperature yesterday: 35 °F

Past Weeks' High & Low Weather Summary

 TemperatureHumidityPressure
High46 °F (Mar 1, 2:00 PM)100% (Feb 19, 6:00 AM)30.69 "Hg (Feb 19, 6:00 AM)
Low27 °F (Feb 28, 6:00 AM)56% (Mar 2, 2:00 PM)29.41 "Hg (Feb 21, 4:00 AM)
Average35 °F87%29.97 "Hg
* Reported Feb 18 3:00 PM — Mar 5 3:00 PM, Nürburg, Weather by CustomWeather, © 2015

Note: Actual official high and low records may vary slightly from our data, if they occured in-between our weather recording intervals... More about our weather records

Advertising

Nürburg weather history for previous 24 hours

 ConditionsComfort  
Time TempWeatherWind HumidityBarometerVisibility
3:00 PM
Thu, Mar 5
40 °FOvercast.5 mph65%30.64 "Hg34 mi
2:00 PM40 °FOvercast.5 mph71%30.66 "Hg25 mi
1:00 PM38 °FOvercast.5 mph72%30.66 "Hg25 mi
12:00 PM38 °FOvercast.7 mph75%30.67 "Hg28 mi
11:00 AM37 °FOvercast.7 mph83%30.66 "Hg31 mi
9:00 AM34 °FLow clouds.3 mph93%30.66 "Hg22 mi
8:00 AM33 °FLow clouds.3 mph94%30.64 "Hg19 mi
7:00 AM33 °FLow clouds.5 mph91%30.64 "Hg17 mi
6:00 AM32 °FPassing clouds.3 mph90%30.62 "Hg19 mi
5:00 AM34 °FOvercast.6 mph88%30.60 "Hg18 mi
3:00 AM34 °FPassing clouds.6 mph88%30.57 "Hg19 mi
2:00 AM35 °FOvercast.7 mph87%30.56 "Hg18 mi
1:00 AM35 °FLow clouds.7 mph88%30.54 "Hg16 mi
12:00 AM35 °FOvercast.6 mph88%30.52 "Hg19 mi
11:00 PM
Wed, Mar 4
34 °FLight freezing rain. Low clouds.6 mph90%30.50 "Hg6 mi
10:00 PM35 °FDrizzle. Low clouds.6 mph83%30.47 "Hg14 mi
9:00 PM35 °FOvercast.6 mph82%30.45 "Hg25 mi
8:00 PM35 °FPassing clouds.6 mph81%30.43 "Hg22 mi
7:00 PM36 °FPassing clouds.7 mph78%30.41 "Hg17 mi
6:00 PM37 °FLow clouds.6 mph78%30.37 "Hg19 mi
5:00 PM36 °FSnow flurries. Low clouds.8 mph80%30.36 "Hg11 mi
4:00 PM41 °FPartly sunny.6 mph71%30.32 "Hg31 mi
Weather by CustomWeather, © 2015

See weather overviewHow to use our weather pages